Content
SEND FEEDBACK

Daily
Averages
Monthly
Summary
United States of America

DEDHAM, MASSACHUSETTS


Home > North America > United States > Massachusetts
Elevation: 64 feet     Latitude: 42 13N     Longitude: 071 07W

WEATHER
 
SELECT A DAY
Number of Records: 135,526;   Date Range: 10/15/98 - 10/20/14
 
SHARE

PRINT THIS DATA

[ ← Previous Day ]
WEATHER ALMANAC - MARCH 17, 2013
[ Next Day → ]
[ °C ]   °F
Weather ElementAverageHighLow
Temperature29.8 °F37.9 °F (12:54 pm)23 °F (6:54 am)
Dewpoint7.9 °F14 °F (8:54 am)1 °F (10:54 pm)
Humidity41.4 %63 % (6:54 am)27 % (2:54 pm)
Barometer30.07 in30.32 in (11:54 pm)29.90 in (1:54 am)
Wind Speed10.8 mph18.4 mph (2:54 pm)
Wind Gust27.6 mph (2:54 pm)
Weather ElementAverage
Wind DirectionWSW (263.9 °)

Weather ElementTotal
Precipitation---
Heating Degree Days34.6 (Base 65)
Averaged from 23 records on March 17, 2013
WEATHER CONDITIONS BREAKOUT
WIND DIRECTION BREAKOUT
WEATHER BY HOUR - MARCH 17, 2013
[ °C ]   °F
Local TimeTemperatureDewpointHumidityBarometerVisibilityWind DirectionWind SpeedGust SpeedPrecipitationEventsConditions
1:54 AM28.9 °F10.9 °F47 %29.90 inNNE (30°)10.4 mph
2:54 AM27.0 °F9.0 °F47 %29.90 inNorth (10°)8.1 mph
3:54 AM27.0 °F10.0 °F49 %29.90 inNNE (20°)6.9 mph
4:54 AM25.0 °F12.0 °F58 %29.93 inNNW (330°)9.2 mph
5:54 AM24.1 °F10.9 °F57 %29.94 inNNW (330°)8.1 mph
6:54 AM23.0 °F12.0 °F63 %29.97 inWNW (300°)8.1 mph
7:54 AM25.0 °F12.9 °F60 %30.00 inWNW (300°)6.9 mph
8:54 AM28.0 °F14.0 °F56 %30.03 inNW (310°)11.5 mph17.3 mph
9:54 AM28.9 °F14.0 °F54 %30.04 inNW (310°)12.7 mph25.3 mph
10:54 AM33.1 °F9.0 °F37 %30.03 inWest (280°)17.3 mph21.9 mph
11:54 AM34.0 °F10.0 °F37 %30.04 inWNW (300°)9.2 mph21.9 mph
12:54 PM37.9 °F10.9 °F33 %30.04 inWNW (290°)12.7 mph25.3 mph
1:54 PM36.0 °F8.1 °F31 %30.03 inNNW (330°)12.7 mph23.0 mph
2:54 PM36.0 °F5.0 °F27 %30.04 inNW (310°)18.4 mph27.6 mph
3:54 PM35.1 °F3.9 °F27 %30.07 inNW (310°)16.1 mph27.6 mph
4:54 PM36.0 °F5.0 °F27 %30.09 inNNW (340°)15.0 mph25.3 mph
5:54 PM34.0 °F3.0 °F27 %30.12 inWNW (290°)9.2 mph23.0 mph
6:54 PM30.0 °F5.0 °F35 %30.16 inNW (310°)8.1 mph16.1 mph
7:54 PM28.9 °F5.0 °F36 %30.21 inNNW (340°)8.1 mph
8:54 PM28.0 °F3.9 °F36 %30.24 inNNW (340°)10.4 mph
9:54 PM27.0 °F3.9 °F37 %30.27 inNorth (350°)6.9 mph
10:54 PM27.0 °F1.0 °F33 %30.30 inNNW (330°)11.5 mph17.3 mph
11:54 PM25.0 °F3.0 °F39 %30.32 inNorth (10°)10.4 mph16.1 mph
Hourly data recorded from KMQE, located miles away from Dedham, Massachusetts







STORIES FROM OUR PARTNERS